Mid Labrador Coast: Past 24 Hour Conditions

 

Port aux Basques

01:30 AM NDT 03 September 2014
This table is a summary of hourly weather conditions for the past 24 hours.
Date / Time
(NDT)
Wind(knots) Conditions Visibility(km) Pressure(kPa) Air tempC) Relative humidity(%) Dew pointC)
03 September 2014
1:30 SE 15 gust 20 Cloudy 2 101.5 17 99 17
0:30 SE 15 Cloudy 5 101.5 17 99 17
02 September 2014
23:30 SE 17 Cloudy 8 101.5 17 98 16
22:30 SE 14 Cloudy 6 101.6 17 98 16
21:30 ESE 14 Cloudy 3 101.6 17 98 16
20:30 ESE 14 gust 20 Cloudy 3 101.6 17 98 16
19:30 ESE 13 gust 19 Cloudy 15 101.6 16 97 16
18:30 ESE 14 gust 19 Cloudy 6 101.7 16 98 16
17:30 ESE 12 Cloudy 3 101.7 16 97 16
16:30 ESE 11 gust 18 Cloudy 6 101.7 16 95 15
15:30 ESE 12 gust 17 Cloudy 8 101.8 16 94 15
14:30 ESE 11 Mostly Cloudy 8 101.8 16 94 15
13:30 ESE 12 Cloudy 15 101.8 17 90 15
12:30 ESE 14 gust 19 Mostly Cloudy 15 101.8 17 88 15
11:30 ESE 13 gust 18 Cloudy 15 101.8 16 93 15
10:30 SE 15 Cloudy 15 101.8 16 92 15
9:30 ESE 13 Cloudy 15 101.8 16 94 15
8:30 E 13 Cloudy 15 101.8 16 94 15
7:30 SE 14 Mainly Sunny 15 101.8 17 93 16
6:30 E 7 Cloudy 15 101.8 16 94 15
5:30 ENE 6 Cloudy 15 101.8 16 94 15
4:30 ENE 8 Mainly Clear 15 101.7 14 93 13
3:30 ENE 7 Clear 15 101.7 15 87 12
2:30 NNE 9 Clear 15 101.7 15 82 12
1:30 NE 7 Clear 15 101.6 15 77 11
 
Map of Atlantic - Newfoundland marine weather areas Southwestern Grand Banks - 44138 Banquereau - 44139 Tail of the Bank - 44140 Nickerson Bank - 44251 Northeast Burgeo Bank - 44255 Blanc-Sablon Airport Cap Whittle Chevery Natashquan Airport Heath Point Miscou Island Grand Étang Ingonish Beach North Mountain St.Paul Island J.A. Douglas McCurdy Sydney Airport Charlottetown Airport East Point North Cape Argentia Bonavista Burgeo Cape Race Corner Brook Daniel's Harbour Englee Ferolle Point La Scie Port aux Basques Rocky Harbour Sagona Island St. Anthony Airport St. John's Int'l Airport St. Lawrence Stephenville Airport Twillingate Winterland Wreckhouse Cartwright Airport Mary's Harbour Grates Cove Pool's Island Marticot Island Long Pond Îles de la Madeleine Airport
Legend: buoyBuoy land stationLand Station